PGT1B LTFE-LTAI

Flight info

Callsign PGT1B
Flight time N/A
Altitude 33000
Route CENGO W95 NEPNO T495 KAVAK T283 BALSU N135 NESIL
Aircraft A320/M-SDE3FGHIRWY/LB1

Departure

Time 2026-04-25 14:37
Airport Milas Bodrum International Airport (LTFE)

Arrival

Time N/A
Airport Antalya International Airport (LTAI)
Time Latitude Longitude Altitude Speed Heading
2026-04-25 14:34 37.24643 27.68115 30 ft 0 kts 17°
2026-04-25 14:35 37.24676 27.68127 30 ft 12 kts 17°
2026-04-25 14:35 37.24740 27.68100 30 ft 9 kts 301°
2026-04-25 14:36 37.24751 27.68052 31 ft 0 kts 285°
2026-04-25 14:36 37.24753 27.68045 31 ft 12 kts 285°
2026-04-25 14:36 37.24857 27.67602 33 ft 89 kts 287°
2026-04-25 14:36 37.25093 27.66609 30 ft 146 kts 287°
2026-04-25 14:37 37.25426 27.65226 225 ft 175 kts 285°
2026-04-25 14:37 37.25785 27.63755 895 ft 179 kts 287°
2026-04-25 14:37 37.26124 27.62210 1445 ft 193 kts 287°
2026-04-25 14:37 37.26468 27.60480 1749 ft 215 kts 286°
2026-04-25 14:38 37.26837 27.58578 2105 ft 235 kts 285°
2026-04-25 14:38 37.27236 27.56516 2612 ft 254 kts 285°
2026-04-25 14:38 37.27669 27.54291 3307 ft 268 kts 284°
2026-04-25 14:38 37.28119 27.51989 4168 ft 274 kts 283°
2026-04-25 14:39 37.28576 27.49656 5121 ft 277 kts 281°
2026-04-25 14:39 37.28666 27.47255 6004 ft 277 kts 257°
2026-04-25 14:39 37.27937 27.45058 6894 ft 274 kts 231°
2026-04-25 14:39 37.26549 27.43465 7732 ft 272 kts 207°
2026-04-25 14:40 37.24762 27.42746 8597 ft 272 kts 183°
2026-04-25 14:40 37.22889 27.43029 9453 ft 274 kts 160°
2026-04-25 14:40 37.21269 27.44290 10253 ft 279 kts 136°
2026-04-25 14:40 37.20210 27.46344 11017 ft 287 kts 111°
2026-04-25 14:41 37.19965 27.48844 11790 ft 296 kts 85°
2026-04-25 14:41 37.20611 27.51342 12360 ft 312 kts 67°
2026-04-25 14:41 37.21606 27.53879 12567 ft 336 kts 65°
2026-04-25 14:41 37.22720 27.56566 12711 ft 359 kts 64°
2026-04-25 14:42 37.23784 27.59490 12977 ft 373 kts 73°
2026-04-25 14:42 37.24204 27.61582 13346 ft 376 kts 82°
2026-04-25 14:42 37.24223 27.65962 14182 ft 377 kts 101°
2026-04-25 14:42 37.23514 27.69084 14780 ft 378 kts 114°
2026-04-25 14:43 37.22312 27.72027 15381 ft 381 kts 119°
2026-04-25 14:43 37.21053 27.74963 15996 ft 383 kts 119°
2026-04-25 14:43 37.19787 27.77927 16655 ft 387 kts 118°
2026-04-25 14:43 37.18519 27.80915 17336 ft 390 kts 118°
2026-04-25 14:44 37.17243 27.83928 17981 ft 393 kts 118°
2026-04-25 14:44 37.15956 27.86965 18533 ft 396 kts 118°
2026-04-25 14:44 37.14659 27.90032 19065 ft 400 kts 118°
2026-04-25 14:44 37.13349 27.93130 19694 ft 403 kts 118°
2026-04-25 14:45 37.12032 27.96238 20311 ft 406 kts 118°
2026-04-25 14:45 37.10700 27.99379 20837 ft 408 kts 118°
2026-04-25 14:45 37.09465 28.02592 21305 ft 411 kts 111°
2026-04-25 14:45 37.08723 28.06062 21745 ft 416 kts 99°
2026-04-25 14:46 37.08576 28.09688 22205 ft 420 kts 88°
2026-04-25 14:46 37.09037 28.13324 22651 ft 425 kts 76°
2026-04-25 14:46 37.10100 28.16792 23081 ft 431 kts 64°
2026-04-25 14:46 37.11581 28.20076 23502 ft 434 kts 62°
2026-04-25 14:47 37.13095 28.23360 23861 ft 436 kts 62°
2026-04-25 14:47 37.14100 28.25536 24105 ft 438 kts 62°
2026-04-25 14:47 37.16145 28.29976 24593 ft 441 kts 62°
2026-04-25 14:47 37.17673 28.33313 24950 ft 442 kts 62°
2026-04-25 14:48 37.19206 28.36681 25298 ft 444 kts 62°
2026-04-25 14:48 37.20738 28.40062 25642 ft 446 kts 62°
2026-04-25 14:48 37.22274 28.43455 25973 ft 448 kts 62°
2026-04-25 14:48 37.23798 28.46815 26290 ft 450 kts 62°
2026-04-25 14:49 37.25351 28.50234 26619 ft 451 kts 62°
2026-04-25 14:49 37.26905 28.53662 26939 ft 453 kts 62°
2026-04-25 14:49 37.28464 28.57117 27263 ft 455 kts 62°
2026-04-25 14:49 37.30021 28.60575 27545 ft 456 kts 62°
2026-04-25 14:50 37.31586 28.64055 27973 ft 455 kts 62°
2026-04-25 14:50 37.32614 28.66341 28258 ft 454 kts 62°
2026-04-25 14:50 37.34653 28.70980 28843 ft 452 kts 66°
2026-04-25 14:50 37.35803 28.74636 29258 ft 450 kts 74°
2026-04-25 14:51 37.36507 28.78459 29674 ft 448 kts 81°
2026-04-25 14:51 37.37067 28.82301 30092 ft 447 kts 81°
2026-04-25 14:51 37.37441 28.84850 30333 ft 446 kts 81°
2026-04-25 14:51 37.38197 28.89974 30776 ft 446 kts 81°
2026-04-25 14:52 37.38763 28.93798 31104 ft 446 kts 81°
2026-04-25 14:52 37.39324 28.97589 31312 ft 445 kts 81°
2026-04-25 14:52 37.39898 29.01469 30569 ft 446 kts 81°
2026-04-25 14:52 37.40083 29.02717 30246 ft 447 kts 81°
2026-04-25 14:53 37.41030 29.09143 28415 ft 453 kts 81°
2026-04-25 14:53 37.41605 29.13058 27288 ft 456 kts 81°
2026-04-25 14:53 37.42182 29.16997 26168 ft 460 kts 81°
2026-04-25 14:53 37.42763 29.20981 25441 ft 464 kts 81°
2026-04-25 14:54 37.43341 29.24984 25171 ft 467 kts 81°
2026-04-25 14:54 37.43919 29.29005 24985 ft 468 kts 81°
2026-04-25 14:54 37.44499 29.33040 25019 ft 469 kts 81°
2026-04-25 14:54 37.44852 29.35724 25015 ft 469 kts 85°
2026-04-25 14:55 37.44987 29.39803 25017 ft 467 kts 94°
2026-04-25 14:55 37.44593 29.43856 25019 ft 465 kts 103°
2026-04-25 14:55 37.43288 29.49004 25016 ft 454 kts 115°
2026-04-25 14:55 37.41959 29.52492 25018 ft 430 kts 117°
2026-04-25 14:56 37.40683 29.55795 25018 ft 410 kts 117°
2026-04-25 14:56 37.39464 29.58948 25016 ft 391 kts 117°
2026-04-25 14:56 37.38303 29.61958 25022 ft 373 kts 117°
2026-04-25 14:56 37.37196 29.64829 24970 ft 358 kts 117°
2026-04-25 14:57 37.36121 29.67608 24686 ft 351 kts 118°
2026-04-25 14:57 37.34841 29.70196 24318 ft 346 kts 130°
2026-04-25 14:57 37.33181 29.72335 23922 ft 342 kts 141°
2026-04-25 14:57 37.31207 29.73980 23521 ft 339 kts 153°
2026-04-25 14:58 37.29060 29.75183 23040 ft 337 kts 156°
2026-04-25 14:58 37.26916 29.76349 22589 ft 335 kts 156°
2026-04-25 14:58 37.24786 29.77519 22158 ft 333 kts 156°
2026-04-25 14:58 37.22670 29.78682 21733 ft 331 kts 156°
2026-04-25 14:59 37.20570 29.79833 21321 ft 329 kts 156°
2026-04-25 14:59 37.18485 29.81000 20913 ft 326 kts 153°
2026-04-25 14:59 37.16617 29.82590 20511 ft 325 kts 139°
2026-04-25 14:59 37.15127 29.84703 20104 ft 325 kts 125°
2026-04-25 15:00 37.14096 29.87225 19696 ft 326 kts 111°
2026-04-25 15:00 37.13604 29.89999 19311 ft 327 kts 97°
2026-04-25 15:00 37.13386 29.92835 18921 ft 327 kts 97°
2026-04-25 15:00 37.13169 29.95662 18563 ft 326 kts 97°
2026-04-25 15:01 37.12968 29.98452 18191 ft 325 kts 97°
2026-04-25 15:01 37.12836 30.00354 17924 ft 324 kts 97°
2026-04-25 15:01 37.12709 30.02210 17667 ft 323 kts 97°
2026-04-25 15:01 37.12450 30.05952 17156 ft 321 kts 97°
2026-04-25 15:02 37.12239 30.08737 16783 ft 320 kts 97°
2026-04-25 15:02 37.11943 30.12406 16306 ft 319 kts 97°
2026-04-25 15:02 37.11718 30.15162 15953 ft 318 kts 97°
2026-04-25 15:02 37.11492 30.17912 15606 ft 317 kts 97°
2026-04-25 15:03 37.11271 30.20654 15261 ft 316 kts 97°
2026-04-25 15:03 37.11183 30.23394 14922 ft 316 kts 85°
2026-04-25 15:03 37.11489 30.26123 14588 ft 316 kts 82°
2026-04-25 15:03 37.11810 30.28838 14258 ft 315 kts 82°
2026-04-25 15:04 37.12131 30.31548 13940 ft 313 kts 82°
2026-04-25 15:04 37.12446 30.34235 13601 ft 312 kts 82°
2026-04-25 15:04 37.12656 30.36021 13363 ft 311 kts 82°
2026-04-25 15:04 37.13080 30.39604 12906 ft 309 kts 82°
2026-04-25 15:05 37.13392 30.42257 12579 ft 308 kts 82°
2026-04-25 15:05 37.13701 30.44907 12247 ft 306 kts 82°
2026-04-25 15:05 37.14005 30.47539 11916 ft 305 kts 82°
2026-04-25 15:06 37.14612 30.52764 11246 ft 301 kts 82°
2026-04-25 15:06 37.14914 30.55355 10896 ft 300 kts 82°
2026-04-25 15:06 37.15213 30.57931 10569 ft 298 kts 82°
2026-04-25 15:06 37.15409 30.59632 10351 ft 297 kts 82°
2026-04-25 15:07 37.15702 30.62195 10016 ft 295 kts 82°
2026-04-25 15:07 37.15994 30.64735 9668 ft 294 kts 82°
2026-04-25 15:07 37.16283 30.67262 9301 ft 292 kts 82°
2026-04-25 15:07 37.16620 30.70597 8838 ft 289 kts 88°
2026-04-25 15:08 37.16631 30.72295 8597 ft 288 kts 94°
2026-04-25 15:08 37.16385 30.74770 8233 ft 285 kts 102°
2026-04-25 15:08 37.15846 30.77145 8028 ft 283 kts 111°
2026-04-25 15:08 37.15056 30.79399 8031 ft 284 kts 116°
2026-04-25 15:09 37.14225 30.81640 8029 ft 284 kts 115°
2026-04-25 15:09 37.13392 30.83899 8028 ft 284 kts 116°
2026-04-25 15:09 37.11732 30.88406 8028 ft 284 kts 115°
2026-04-25 15:10 37.11184 30.89891 7923 ft 283 kts 115°
2026-04-25 15:10 37.10359 30.92125 7671 ft 282 kts 116°
2026-04-25 15:10 37.08730 30.96538 7098 ft 280 kts 116°
2026-04-25 15:11 37.07402 30.99308 7014 ft 278 kts 135°
2026-04-25 15:11 37.05858 31.00745 7024 ft 278 kts 155°
2026-04-25 15:11 37.04018 31.01415 7025 ft 277 kts 175°
2026-04-25 15:12 37.00355 31.00290 6987 ft 275 kts 209°
2026-04-25 15:12 36.98673 30.99159 6621 ft 273 kts 209°
2026-04-25 15:12 36.97006 30.98039 6212 ft 273 kts 208°
2026-04-25 15:12 36.95898 30.97297 5938 ft 272 kts 208°
2026-04-25 15:13 36.93666 30.95806 5380 ft 271 kts 208°
2026-04-25 15:13 36.90281 30.93778 5007 ft 271 kts 195°
2026-04-25 15:13 36.88446 30.93377 5004 ft 272 kts 184°
2026-04-25 15:14 36.86561 30.93196 5011 ft 272 kts 184°
2026-04-25 15:14 36.84673 30.93010 5012 ft 272 kts 184°
2026-04-25 15:14 36.82794 30.92824 4717 ft 269 kts 184°
2026-04-25 15:14 36.81532 30.92699 4424 ft 269 kts 184°
2026-04-25 15:15 36.80300 30.92578 4155 ft 268 kts 184°
2026-04-25 15:15 36.77910 30.91909 4003 ft 268 kts 204°
2026-04-25 15:15 36.76359 30.90653 3706 ft 267 kts 223°
2026-04-25 15:15 36.74933 30.88181 3371 ft 257 kts 242°
2026-04-25 15:16 36.74096 30.86270 3245 ft 246 kts 241°
2026-04-25 15:16 36.73283 30.84450 3125 ft 236 kts 240°
2026-04-25 15:16 36.72479 30.80794 2857 ft 216 kts 291°
2026-04-25 15:17 36.74640 30.78878 2626 ft 191 kts
2026-04-25 15:17 36.75912 30.79050 2503 ft 178 kts
2026-04-25 15:17 36.77118 30.79216 2310 ft 170 kts
2026-04-25 15:18 36.77888 30.79321 2152 ft 167 kts
2026-04-25 15:18 36.80003 30.79610 1758 ft 144 kts
2026-04-25 15:18 36.80336 30.79656 1696 ft 142 kts